Regional Weather Roundup
Issued by NWS

Home | Current Version | Previous Version | Text Only | Print | Product List | Glossary On
Versions: 1 2 3 4 5 6 7 8 9 10 11 12 13 14 15 16 17 18 19 20 21 22 23 24 25 26 27 28 29 30 31 32 33 34 35 36 37 38 39 40 41 42 43 44 45 46 47 48 49 50
000
ASUS43 KDMX 201507
RWRIA

WEATHER ROUNDUP FOR IOWA
NATIONAL WEATHER SERVICE DES MOINES IA
1000 AM CDT WED AUG 20 2014

NOTE: "FAIR" INDICATES FEW OR NO CLOUDS BELOW 12,000 FEET WITH NO
SIGNIFICANT WEATHER AND/OR OBSTRUCTIONS TO VISIBILITY.

* - THESE STATIONS ARE NOT NWS STATIONS...THUS NOT UNDER NWS
QUALITY CONTROL.  THEY ALSO DO NOT REPORT WEATHER SUCH
AS PRECIPITATION OR FOG.

IAZ001>003-012>014-020>022-031>034-043>046-201600-
   NORTHWEST IOWA

CITY           SKY/WX    TMP DP  RH WIND       PRES   REMARKS
CARROLL *      CLOUDY    68  68 100 S10G18    29.82F
CHEROKEE *     CLOUDY    70  68  94 S5        29.81F
DENISON *      MOSUNNY   70  68  94 SE13G18   29.82R
LE MARS *      DRIZZLE   72  68  88 S10       29.81F
ORANGE CITY *  SUNNY     72  66  83 SE5       29.82F
SHELDON *      SUNNY     70  68  94 SE7       29.82F
SIOUX CITY     CLOUDY    73  67  81 VRB3      29.81F
SPENCER        CLOUDY    71  66  84 SE8       29.85R
STORM LAKE *   SUNNY     68  68 100 SE8G15    29.82F
$$

IAZ055>058-069>071-079>083-090>094-201600-
   SOUTHWEST IOWA

CITY           SKY/WX    TMP DP  RH WIND       PRES   REMARKS
ATLANTIC *     PTSUNNY   70  66  88 E9        29.88F
AUDUBON *      CLOUDY    70  66  88 SE13      29.88F
CLARINDA *     SUNNY     73  70  88 E8G16     29.90R
COUNCIL BLFS * SUNNY     72  70  94 E13       29.86R
CRESTON *      SUNNY     70  66  88 E10       29.93S
HARLAN  *      SUNNY     70  68  94 SE10G17   29.90F
LAMONI         CLOUDY    71  66  84 NE8       29.93R
SHENANDOAH *   SUNNY     77  72  83 NE10      29.88R
$$

IAZ047>049-059>061-072>074-084-201600-
   CENTRAL IOWA

CITY           SKY/WX    TMP DP  RH WIND       PRES   REMARKS
AMES           LGT RAIN  68  68 100 S12       29.89S
ANKENY *       CLOUDY    68  66  94 S10       29.91F
CHARITON *     LGT RAIN  68  66  94 NE7G15    29.93R
DES MOINES     TSTM      68  64  87 W5        29.93F FOG
GRINNELL*      RAIN      68  66  94 SW9       29.93S
KNOXVILLE *    LGT RAIN  68  66  94 NE6       29.90F
MARSHALLTOWN   CLOUDY    68  67  96 S6        29.91R
PELLA *        LGT RAIN  70  68  94 SW3       29.95R
PERRY *        LGT RAIN  68  66  94 S7        29.89S
$$

IAZ004>006-015-016-023>025-035-036-201600-
   NORTH CENTRAL IOWA

CITY           SKY/WX    TMP DP  RH WIND       PRES   REMARKS
ALGONA *       SUNNY     70  68  94 SE5       29.87R
CLARION *      MOSUNNY   70  68  94 SE7G13    29.87F
ESTHERVILLE    CLOUDY    69  66  90 SE7       29.84S
FORT DODGE *   CLOUDY    68  66  94 SW6       29.86S
MASON CITY     CLOUDY    72  66  81 S3        29.90S
FOREST CITY *  PTSUNNY   70  68  94 SE3       29.89R
IOWA FALLS *   PTSUNNY   68  64  88 S3        29.92R
$$

IAZ007>011-017>019-026>030-037>042-050>054-066-201600-
   NORTHEAST IOWA

CITY           SKY/WX    TMP DP  RH WIND       PRES   REMARKS
CEDAR RAPIDS   CLOUDY    67  66  97 SW6       29.93R
CHARLES CITY * SUNNY     70  66  88 CALM      29.91R
CLINTON *      CLOUDY    73  66  78 SW8       29.94R
DECORAH *      SUNNY     72  68  88 CALM      29.88F
DUBUQUE        CLOUDY    73  66  78 W9        29.91R
MONTICELLO *   SUNNY     75  68  78 SW5       29.90R
OELWEIN *      SUNNY     72  66  83 CALM      29.91S
WATERLOO       CLOUDY    71  65  81 SW3       29.88S
$$

IAZ064-065-067-068-078-201600-
   EAST CENTRAL IOWA

CITY           SKY/WX    TMP DP  RH WIND       PRES   REMARKS
DAVENPORT      CLOUDY    73  65  75 SW8       29.91R
IOWA CITY      CLOUDY    69  67  93 CALM      29.94R
MT. PLEASANT * CLOUDY    70  68  94 NW6       29.92R
MUSCATINE *    MOSUNNY   70  66  88 CALM      29.89F
QUAD CITIES    CLOUDY    74  66  76 SW5       29.90R
$$

IAZ062-063-075>077-085>089-095>099-201600-
   SOUTHEAST IOWA

CITY           SKY/WX    TMP DP  RH WIND       PRES   REMARKS
BURLINGTON     CLOUDY    70  69  97 S5        29.87F
FAIRFIELD *    DRIZZLE   68  66  94 W9G15     29.97R
FORT MADISON * CLOUDY    70  70 100 E5        29.88F
KEOKUK *       CLOUDY    70  68  94 E12       29.86F
OSKALOOSA *    RAIN      68  66  94 NE9       29.93F
CENTERVILLE *  SUNNY     68  68 100 NE3       29.94F
OTTUMWA        LGT RAIN  68  66  93 NE15      29.90S FOG
WASHINGTON *   LGT RAIN  68  68 100 W9        29.95R
$$

ABBREVIATIONS USED IN REMARKS
   TC - TEMPERATURES IN CELSIUS
  WCI - WIND CHILL INDEX
   HX - HEAT INDEX
  VSB - VISIBILITY
$$




USA.gov is the U.S. government's official web portal to all federal, state and local government web resources and services.